TimeEDT,TemperatureF,Dew PointF,Humidity,Sea Level PressureIn,VisibilityMPH,Wind Direction,Wind SpeedMPH,Gust SpeedMPH,PrecipitationIn,Events,Conditions,WindDirDegrees,DateUTC
12:54 AM,52.0,50.0,93,29.93,-9999.0,North,-9999.0,-,N/A,,Unknown,0,2013-08-15 04:54:00
1:54 AM,50.0,48.0,93,29.94,-9999.0,North,-9999.0,-,N/A,,Unknown,0,2013-08-15 05:54:00
2:54 AM,48.9,46.9,93,29.95,-9999.0,North,-9999.0,-,N/A,,Unknown,0,2013-08-15 06:54:00
3:54 AM,48.0,46.0,93,29.96,-9999.0,North,-9999.0,-,N/A,,Unknown,0,2013-08-15 07:54:00
4:54 AM,46.9,46.9,100,29.97,-9999.0,North,-9999.0,-,N/A,,Unknown,0,2013-08-15 08:54:00
5:54 AM,46.9,46.9,100,29.99,-9999.0,North,-9999.0,-,N/A,,Unknown,0,2013-08-15 09:54:00
6:54 AM,48.0,48.0,100,30.01,-9999.0,North,-9999.0,-,N/A,,Unknown,0,2013-08-15 10:54:00
7:54 AM,48.9,48.9,100,30.03,-9999.0,North,-9999.0,-,N/A,,Unknown,0,2013-08-15 11:54:00
8:54 AM,55.9,51.1,84,30.02,-9999.0,North,-9999.0,-,N/A,,Unknown,0,2013-08-15 12:54:00
9:54 AM,62.1,50.0,65,30.02,-9999.0,North,-9999.0,-,N/A,,Unknown,0,2013-08-15 13:54:00
10:54 AM,64.9,48.0,54,30.02,-9999.0,North,-9999.0,-,N/A,,Unknown,0,2013-08-15 14:54:00
11:54 AM,66.9,46.9,49,30.02,-9999.0,North,-9999.0,-,N/A,,Unknown,0,2013-08-15 15:54:00
12:54 PM,69.1,46.9,45,30.01,-9999.0,North,-9999.0,-,N/A,,Unknown,0,2013-08-15 16:54:00
1:54 PM,68.0,46.9,47,30.00,-9999.0,North,-9999.0,-,N/A,,Unknown,0,2013-08-15 17:54:00
2:54 PM,70.0,46.9,44,29.99,-9999.0,North,-9999.0,-,N/A,,Unknown,0,2013-08-15 18:54:00
3:54 PM,72.0,46.9,41,29.99,-9999.0,North,-9999.0,-,N/A,,Unknown,0,2013-08-15 19:54:00
4:54 PM,71.1,48.0,44,29.99,-9999.0,North,-9999.0,-,N/A,,Unknown,0,2013-08-15 20:54:00
5:54 PM,70.0,48.9,47,29.98,-9999.0,North,-9999.0,-,N/A,,Unknown,0,2013-08-15 21:54:00
6:54 PM,69.1,48.9,49,29.99,-9999.0,North,-9999.0,-,N/A,,Unknown,0,2013-08-15 22:54:00
7:54 PM,63.0,52.0,67,30.01,-9999.0,North,-9999.0,-,N/A,,Unknown,0,2013-08-15 23:54:00
8:54 PM,59.0,54.0,83,30.04,-9999.0,North,-9999.0,-,N/A,,Unknown,0,2013-08-16 00:54:00
9:54 PM,57.0,53.1,87,30.06,-9999.0,North,-9999.0,-,N/A,,Unknown,0,2013-08-16 01:54:00
10:54 PM,55.0,52.0,89,30.07,-9999.0,North,-9999.0,-,N/A,,Unknown,0,2013-08-16 02:54:00
11:54 PM,53.1,51.1,93,30.08,-9999.0,North,-9999.0,-,N/A,,Unknown,0,2013-08-16 03:54:00